Tracking 22879 objects as of 21-Apr-2021
HD Live streaming from Space Station
objects crossing your sky now

RSP-00


RSP-00 is no longer on orbit
RSP-00 is classified as:


NORAD ID: 43639
Int'l Code: 1998-067PP
Perigee: N/A
Apogee: N/A
Inclination: N/A
Period: N/A
Semi major axis: N/A
RCS: N/A
Launch date: November 20, 1998
Source: (TBD)
Launch site: TYURATAM MISSILE AND SPACE COMPLEX (TTMTR)
Decay date: 2021-03-14

Uplink (MHz):
Downlink (MHz): 145.890/436.930
Beacon (MHz): 145.890
Mode: 1k2AFSK 38k4 pi/4QPSK CW
Call sign: 8J1RSP
Status: Inactive

aabbcc
Your satellite tracking list
Your tracking list is empty




NASA's NSSDC Master Catalog

Two Line Element Set (TLE):
1 43639U 98067PP  21073.23514490  .07401480  12285-4  69672-3 0  9995
2 43639  51.6155 344.9209 0007122 243.2692 116.7605 16.37729371139455
Source of the keplerian elements: AFSPC